Tracking 19249 objects as of 16-Oct-2018
HD Live streaming from Space Station
objects crossing your sky now

FLOCK 3M 3

Track FLOCK 3M 3 now!
10-day predictions
FLOCK 3M 3 is classified as:


NORAD ID: 42996
Int'l Code: 2017-068K
Perigee: 502.3 km
Apogee: 526.8 km
Inclination: 97.4 °
Period: 94.8 minutes
Semi major axis: 6885 km
RCS: Unknown
Launch date: October 31, 2017
Source: United States (US)
Launch site: AIR FORCE WESTERN TEST RANGE (AFWTR)
aabbcc
Your satellite tracking list
Your tracking list is empty




NASA's NSSDC Master Catalog

Two Line Element Set (TLE):
1 42996U 17068K   18288.82236672  .00002909  00000-0  13972-3 0  9990
2 42996  97.3582  38.2964 0017790  88.8924  29.6890 15.19493854 52955
Source of the keplerian elements: AFSPC